Pecos, TX

12:35 PM CDT on June 22, 2017 (GMT -0500)
Pecos Municipal

Weather History for KPEQ - January, 2014

Change the Weather History Date:

Wednesday, January 8, 2014

  Actual Average Record
Temperature  
Mean Temperature 48 °F -  
Max Temperature 70 °F 52 °F 82 °F (2006)
Min Temperature 27 °F 27 °F 10 °F (1970)
Degree Days  
Heating Degree Days 16    
Moisture  
Dew Point 28 °F    
Average Humidity 58    
Maximum Humidity 77    
Minimum Humidity 18    
Precipitation  
Precipitation 0.00 in - - ()
Sea Level Pressure  
Sea Level Pressure 30.03 in    
Wind  
Wind Speed 3 mph (ENE)    
Max Wind Speed 16 mph    
Max Gust Speed 23 mph    
Visibility 10 miles    
Events      
Averages and records for this station are not official NWS values.
T = Trace of Precipitation, MM = Missing Value Source: NWS Daily Summary

Daily Weather History Graph

Daily Weather History Graph

Search for Another Location

Airport or City:

Trip Planner

Search our weather history database for the weather conditions in past years. The results will help you decide how hot, cold, wet, or windy it might be!

Date:

Astronomy

Jan. 08, 2014 Rise Set
Actual Time 7:54 AM CST 6:07 PM CST
Civil Twilight 7:27 AM CST 6:34 PM CST
Nautical Twilight 6:57 AM CST 7:04 PM CST
Astronomical Twilight 6:28 AM CST 7:33 PM CST
Moon 12:50 PM CST (1/8) 1:15 AM CST (1/8)
Length of Visible Light 11h 06m
Length of Day
10h 13m
First Quarter, 56% of the Moon is Illuminated
Jan 8
First Quarter
Jan 15
Full
Jan 23
Last Quarter
Jan 30
New
Feb 6
First Quarter

Hourly Weather History & Observations

Time (CST) Temp. Windchill Dew Point Humidity Pressure Visibility Wind Dir Wind Speed Gust Speed Precip Events Conditions
12:15 AM 31.8 °F 28.5 °F 19.9 °F 62% 30.05 in 10.0 mi ENE 3.5 mph - N/A   Clear
12:35 AM 32.0 °F - 19.9 °F 61% 30.04 in 10.0 mi Calm Calm - N/A   Clear
12:55 AM 29.7 °F - 18.7 °F 64% 30.03 in 10.0 mi Calm Calm - N/A   Clear
1:15 AM 27.5 °F - 19.4 °F 72% 30.03 in 10.0 mi Calm Calm - N/A   Clear
1:35 AM 28.2 °F - 21.0 °F 74% 30.03 in 10.0 mi Calm Calm - N/A   Clear
1:55 AM 30.2 °F 26.7 °F 20.8 °F 68% 30.02 in 10.0 mi NE 3.5 mph - N/A   Clear
2:15 AM 30.7 °F - 21.2 °F 68% 30.02 in 10.0 mi Calm Calm - N/A   Clear
2:35 AM 30.4 °F 25.6 °F 21.6 °F 70% 30.02 in 10.0 mi ENE 4.6 mph - N/A   Clear
2:55 AM 30.2 °F 23.4 °F 21.7 °F 71% 30.02 in 10.0 mi ENE 6.9 mph - N/A   Clear
3:15 AM 30.2 °F 25.4 °F 21.9 °F 71% 30.02 in 10.0 mi East 4.6 mph - N/A   Clear
3:35 AM 30.2 °F - 22.1 °F 72% 30.03 in 10.0 mi Calm Calm - N/A   Clear
3:55 AM 30.7 °F - 22.8 °F 72% 30.02 in 10.0 mi Calm Calm - N/A   Clear
4:15 AM 31.1 °F 26.4 °F 23.5 °F 74% 30.03 in 10.0 mi NNW 4.6 mph - N/A   Clear
4:35 AM 32.4 °F - 24.8 °F 74% 30.03 in 10.0 mi Calm Calm - N/A   Clear
4:55 AM 32.0 °F - 24.6 °F 74% 30.02 in 10.0 mi Calm Calm - N/A   Clear
5:15 AM 31.8 °F 28.5 °F 24.6 °F 75% 30.03 in 10.0 mi SW 3.5 mph - N/A   Clear
5:35 AM 32.0 °F - 24.8 °F 75% 30.02 in 10.0 mi Calm Calm - N/A   Clear
5:55 AM 32.0 °F - 25.0 °F 75% 30.02 in 10.0 mi Calm Calm - N/A   Clear
6:15 AM 32.4 °F - 25.5 °F 76% 30.03 in 10.0 mi Calm Calm - N/A   Clear
6:35 AM 32.4 °F - 25.5 °F 76% 30.02 in 10.0 mi Calm Calm - N/A   Scattered Clouds
6:55 AM 32.4 °F 27.9 °F 25.7 °F 76% 30.04 in 10.0 mi West 4.6 mph - N/A   Mostly Cloudy
7:15 AM 32.5 °F - 25.9 °F 76% 30.04 in 10.0 mi Calm Calm - N/A   Scattered Clouds
7:35 AM 32.9 °F - 25.9 °F 75% 30.05 in 10.0 mi Calm Calm - N/A   Scattered Clouds
7:55 AM 33.1 °F - 26.2 °F 76% 30.05 in 10.0 mi Calm Calm - N/A   Mostly Cloudy
8:15 AM 33.3 °F - 26.6 °F 77% 30.05 in 10.0 mi Calm Calm - N/A   Mostly Cloudy
8:35 AM 33.8 °F 30.8 °F 26.6 °F 75% 30.06 in 10.0 mi SSW 3.5 mph - N/A   Scattered Clouds
8:55 AM 33.8 °F - 27.1 °F 77% 30.07 in 10.0 mi Calm Calm - N/A   Scattered Clouds
9:15 AM 34.3 °F - 27.3 °F 76% 30.07 in 10.0 mi Calm Calm - N/A   Mostly Cloudy
9:35 AM 34.9 °F 32.0 °F 27.7 °F 75% 30.08 in 10.0 mi ENE 3.5 mph - N/A   Scattered Clouds
9:55 AM 36.0 °F - 28.0 °F 73% 30.09 in 10.0 mi Calm Calm - N/A   Mostly Cloudy
10:15 AM 36.5 °F 33.9 °F 27.5 °F 70% 30.09 in 10.0 mi NE 3.5 mph - N/A   Overcast
10:35 AM 37.4 °F - 27.9 °F 68% 30.10 in 10.0 mi Calm Calm - N/A   Overcast
10:55 AM 37.8 °F 34.2 °F 28.4 °F 69% 30.10 in 10.0 mi NE 4.6 mph - N/A   Mostly Cloudy
11:15 AM 38.7 °F 35.2 °F 28.4 °F 67% 30.09 in 10.0 mi NNE 4.6 mph - N/A   Scattered Clouds
11:35 AM 40.3 °F - 29.1 °F 64% 30.08 in 10.0 mi Calm Calm - N/A   Clear
11:55 AM 44.1 °F 42.5 °F 30.7 °F 59% 30.07 in 10.0 mi NNE 3.5 mph - N/A   Clear
12:15 PM 46.4 °F - 31.8 °F 57% 30.06 in 10.0 mi Calm Calm - N/A   Clear
12:35 PM 50.9 °F - 32.7 °F 50% 30.05 in 10.0 mi Calm Calm - N/A   Clear
12:55 PM 53.2 °F - 33.4 °F 47% 30.03 in 10.0 mi NE 4.6 mph - N/A   Clear
1:15 PM 54.5 °F - 33.3 °F 45% 30.02 in 10.0 mi ENE 4.6 mph - N/A   Clear
1:35 PM 57.2 °F - 33.8 °F 41% 30.00 in 10.0 mi Calm Calm - N/A   Clear
1:55 PM 59.0 °F - 33.8 °F 39% 29.99 in 10.0 mi East 5.8 mph - N/A   Clear
2:15 PM 60.4 °F - 34.0 °F 37% 29.98 in 10.0 mi SE 6.9 mph - N/A   Clear
2:35 PM 62.1 °F - 34.0 °F 35% 29.98 in 10.0 mi ESE 6.9 mph - N/A   Clear
2:55 PM 63.5 °F - 33.1 °F 32% 29.97 in 10.0 mi SE 6.9 mph - N/A   Clear
3:15 PM 65.7 °F - 33.1 °F 30% 29.97 in 10.0 mi Calm Calm - N/A   Clear
3:35 PM 66.9 °F - 31.3 °F 27% 29.96 in 10.0 mi West 3.5 mph - N/A   Clear
3:55 PM 70.2 °F - 24.4 °F 18% 29.96 in 10.0 mi West 16.1 mph 23.0 mph N/A   Clear
4:15 PM 69.8 °F - 24.6 °F 18% 29.95 in 10.0 mi West 13.8 mph - N/A   Clear
4:35 PM 69.8 °F - 25.2 °F 19% 29.96 in 10.0 mi West 10.4 mph - N/A   Clear
4:55 PM 69.1 °F - 26.2 °F 20% 29.97 in 10.0 mi West 10.4 mph - N/A   Clear
5:15 PM 68.4 °F - 26.6 °F 21% 29.97 in 10.0 mi West 11.5 mph - N/A   Clear
5:35 PM 66.4 °F - 27.5 °F 23% 29.97 in 10.0 mi WSW 5.8 mph - N/A   Clear
5:55 PM 62.6 °F - 28.4 °F 27% 29.97 in 10.0 mi SW 4.6 mph - N/A   Clear
6:15 PM 60.3 °F - 29.3 °F 31% 29.98 in 10.0 mi SSW 5.8 mph - N/A   Clear
6:35 PM 55.2 °F - 29.3 °F 37% 30.00 in 10.0 mi ENE 3.5 mph - N/A   Clear
6:55 PM 55.0 °F - 32.0 °F 42% 30.01 in 10.0 mi NE 4.6 mph - N/A   Clear
7:15 PM 51.1 °F - 32.0 °F 48% 30.02 in 10.0 mi ENE 4.6 mph - N/A   Clear
7:35 PM 52.0 °F - 32.0 °F 47% 30.02 in 10.0 mi East 5.8 mph - N/A   Clear
7:55 PM 48.2 °F - 32.0 °F 54% 30.02 in 10.0 mi SE 6.9 mph - N/A   Clear
8:15 PM 47.3 °F - 32.0 °F 55% 30.02 in 10.0 mi East 4.6 mph - N/A   Clear
8:35 PM 44.4 °F 41.2 °F 31.6 °F 61% 30.03 in 10.0 mi ENE 5.8 mph - N/A   Clear
8:55 PM 44.1 °F 40.8 °F 31.5 °F 61% 30.04 in 10.0 mi East 5.8 mph - N/A   Clear
9:15 PM 42.8 °F - 31.8 °F 65% 30.04 in 10.0 mi Calm Calm - N/A   Clear
9:35 PM 44.2 °F 42.7 °F 31.8 °F 62% 30.05 in 10.0 mi ENE 3.5 mph - N/A   Clear
9:55 PM 42.6 °F 40.9 °F 31.5 °F 65% 30.05 in 10.0 mi NW 3.5 mph - N/A   Clear
10:15 PM 41.5 °F - 31.5 °F 67% 30.06 in 10.0 mi Calm Calm - N/A   Clear
10:35 PM 42.8 °F - 31.6 °F 65% 30.05 in 10.0 mi Calm Calm - N/A   Clear
10:55 PM 39.9 °F - 30.6 °F 69% 30.05 in 10.0 mi Calm Calm - N/A   Clear
11:15 PM 38.5 °F - 29.7 °F 71% 30.05 in 10.0 mi Calm Calm - N/A   Clear
11:35 PM 37.8 °F - 29.5 °F 72% 30.05 in 10.0 mi Calm Calm - N/A   Clear
11:55 PM 37.0 °F - 29.3 °F 74% 30.05 in 10.0 mi Calm Calm - N/A   Clear